Vorticity
4 5 5 4 4 4 5 5 7 5 4 -2 -1 -4 -1 6 0 9 0 13 11 20 11 6 11 8 5 9 7 7 6 6 8 7 9 9 6 6 4 4 5 4 4 6
7 4 3 5 4 5 5 3 5 7 2 6 3 2 2 1 -1 6 6 9 16 18 17 8 6 6 9 10 7 6 6 6 7 4 9 10 6 9 8 8 8 7 6 5
5 4 4 4 5 6 4 3 4 4 3 -3 4 1 1 4 -2 8 -4 10 15 15 18 9 10 9 10 10 8 11 10 8 5 3 3 8 9 8 6 7 6 5 5 6
5 -2 8 1 4 3 5 1 5 4 7 4 -1 4 4 -2 3 7 11 7 10 12 24 10 10 10 5 8 7 9 10 10 2 1 2 4 3 7 7 8 4 4 6 6
9 6 3 8 4 5 4 0 2 0 2 -1 3 5 6 17 10 2 23 -2 9 12 21 15 9 7 6 6 8 12 6 9 8 5 7 3 7 6 5 3 6 6 5 4
-2 3 1 7 -0 3 4 5 3 4 5 -6 10 1 14 7 0 7 -11 19 19 11 12 16 12 7 5 6 5 4 3 7 7 7 9 8 6 5 4 5 5 4 3 4
18 2 -6 -4 2 5 5 3 3 4 -1 -13 4 -7 -18 -4 9 3 0 19 6 22 9 16 16 13 8 5 7 3 -1 3 6 6 7 5 4 4 6 5 5 4 1 2
3 13 10 6 -7 0 6 12 3 2 5 1 3 8 -1 7 11 20 19 19 -1 19 19 9 12 14 10 5 4 3 3 4 6 7 7 8 6 3 4 5 8 4 3 3
2 5 7 3 21 -7 4 3 16 12 5 4 13 10 10 8 13 7 10 2 2 16 26 13 8 12 15 12 5 5 4 5 5 6 5 6 5 4 5 8 5 2 2 2
7 12 -4 15 6 8 12 -3 2 -2 0 2 0 -7 8 -3 7 10 7 -0 14 26 2 19 17 14 12 11 9 6 6 6 7 4 5 5 5 7 8 5 2 2 2 2
21 26 -4 0 6 0 14 15 8 10 -2 -2 -31 18 11 8 6 10 -4 11 15 36 5 14 16 16 12 10 10 10 8 6 7 6 6 6 7 8 4 3 3 2 3 5
-2 -6 10 -3 21 5 -1 3 17 12 12 14 11 33 18 19 19 28 12 -4 11 19 35 10 20 14 10 10 9 8 7 6 6 6 6 6 5 6 5 4 3 4 5 5
16 15 16 13 22 2 6 -6 11 0 14 7 3 13 8 -1 2 5 5 -12 8 11 6 3 14 9 10 9 7 8 9 7 6 6 5 6 8 5 5 3 5 5 5 5
-12 20 11 18 -0 15 18 7 13 14 -2 5 7 -13 -5 -0 3 3 1 -14 7 8 25 15 7 6 9 9 9 7 7 7 6 6 8 6 6 5 4 6 4 6 6 3
11 20 23 14 1 -2 17 8 14 12 13 11 6 12 15 29 15 10 11 11 20 6 23 -2 13 6 6 4 4 4 5 7 8 8 7 6 6 7 4 4 3 4 4 6
4 15 7 21 3 10 -5 1 -3 5 10 15 -4 28 16 11 2 18 31 30 13 8 16 8 11 14 12 6 5 4 7 8 10 11 11 9 4 6 5 6 8 5 6 6
13 23 7 18 12 29 35 15 9 6 -2 5 5 -17 13 27 15 12 21 16 9 19 16 3 10 9 8 11 15 12 7 5 6 7 7 7 6 7 10 8 7 6 6 7
-20 3 30 28 12 5 -12 6 -0 11 18 15 21 10 13 26 9 15 11 15 10 10 11 6 12 12 11 11 8 9 9 6 6 7 5 5 8 9 7 6 6 6 11 8
14 50 13 15 18 3 -0 0 2 8 16 18 32 6 36 11 23 7 14 5 3 11 14 4 7 5 4 4 6 7 6 9 7 6 10 13 6 7 8 11 10 4 7 7
22 14 5 -18 9 16 14 15 15 4 -6 15 1 11 9 11 15 12 34 22 15 11 6 7 6 8 9 6 8 9 9 10 15 12 7 10 8 7 9 5 2 10 7 4
2 11 3 28 4 12 14 20 6 9 12 19 23 18 6 15 10 -16 21 19 20 13 8 6 11 10 10 12 14 11 13 7 1 12 5 7 7 9 7 8 11 7 5 4
-6 10 28 6 9 13 0 8 10 5 12 29 15 5 18 31 1 -1 -0 2 6 3 14 12 10 10 12 9 7 2 3 7 5 6 5 10 14 6 8 8 6 4 4 2
15 14 19 24 -12 9 8 27 -1 11 21 5 15 1 18 6 17 13 6 13 11 3 2 14 3 5 8 4 -3 2 3 9 8 8 10 13 4 6 9 7 6 5 6 4
25 -18 6 72 3 -12 -7 -0 17 12 20 12 9 11 4 5 7 25 24 7 3 6 6 10 10 5 -0 -4 10 9 5 4 8 12 12 6 5 8 6 5 5 6 5 11
7 22 -23 -27 5 12 23 3 9 -12 -19 7 1 14 18 17 8 0 1 10 8 1 7 9 10 11 9 7 2 5 10 15 12 11 8 7 6 4 4 6 7 9 12 10
17 40 32 -7 -3 -4 26 15 17 21 20 6 3 -9 -4 -7 -7 -4 2 14 6 7 11 16 13 15 14 14 17 19 14 12 3 5 7 6 6 8 8 10 11 10 9 9
Height
5793 5799 5805 5811 5815 5818 5820 5823 5824 5828 5823 5824 5822 5821 5825 5820 5826 5826 5824 5825 5823 5821 5821 5822 5823 5823 5823 5824 5825 5825 5828 5828 5829 5829 5829 5828 5828 5828 5828 5827 5827 5826 5826 5825
5782 5789 5802 5802 5805 5807 5811 5812 5816 5820 5819 5816 5815 5811 5810 5816 5816 5816 5817 5816 5817 5814 5814 5814 5815 5816 5817 5818 5819 5819 5821 5821 5822 5822 5822 5822 5822 5822 5822 5821 5821 5820 5819 5819
5769 5791 5784 5789 5794 5796 5798 5803 5808 5809 5809 5806 5802 5800 5801 5809 5809 5810 5809 5807 5806 5808 5806 5806 5807 5808 5809 5811 5812 5813 5814 5814 5813 5813 5814 5815 5814 5814 5813 5813 5813 5812 5811 5810
5755 5777 5769 5774 5781 5787 5788 5797 5796 5797 5797 5797 5798 5778 5791 5799 5804 5805 5804 5799 5798 5799 5798 5796 5799 5801 5801 5803 5804 5805 5807 5808 5808 5806 5806 5806 5806 5806 5806 5806 5805 5803 5802 5801
5751 5758 5761 5764 5781 5777 5786 5779 5783 5785 5786 5784 5787 5776 5778 5791 5794 5798 5796 5792 5790 5790 5790 5789 5789 5792 5793 5794 5796 5797 5799 5800 5800 5800 5800 5799 5798 5799 5798 5797 5797 5796 5794 5793
5737 5742 5744 5758 5761 5763 5768 5768 5768 5771 5773 5770 5776 5776 5771 5777 5782 5786 5789 5786 5782 5778 5780 5781 5780 5781 5784 5787 5788 5789 5790 5791 5792 5791 5791 5792 5791 5790 5789 5789 5787 5786 5785 5784
5730 5725 5732 5743 5747 5751 5754 5758 5757 5757 5756 5762 5764 5763 5762 5764 5764 5776 5778 5776 5772 5770 5770 5771 5773 5774 5776 5778 5779 5780 5782 5783 5783 5783 5782 5781 5781 5780 5779 5778 5778 5777 5776 5774
5706 5706 5722 5735 5733 5740 5740 5747 5749 5746 5749 5755 5756 5748 5750 5748 5751 5767 5769 5767 5763 5761 5760 5760 5764 5765 5766 5768 5770 5772 5773 5773 5773 5773 5773 5772 5770 5769 5769 5768 5768 5767 5765 5763
5691 5695 5716 5712 5718 5722 5727 5727 5745 5733 5741 5740 5740 5743 5739 5737 5738 5752 5757 5756 5756 5752 5748 5750 5751 5755 5758 5760 5761 5762 5763 5763 5764 5764 5763 5762 5760 5760 5760 5758 5758 5756 5753 5750
5679 5682 5693 5697 5696 5700 5709 5725 5718 5718 5725 5726 5725 5729 5729 5730 5728 5739 5744 5745 5745 5739 5739 5739 5742 5745 5748 5749 5750 5751 5753 5754 5754 5753 5753 5751 5751 5751 5750 5749 5747 5745 5743 5739
5666 5665 5677 5674 5674 5691 5693 5695 5700 5706 5709 5714 5715 5716 5723 5723 5714 5724 5734 5736 5733 5728 5728 5728 5731 5735 5737 5738 5741 5741 5742 5743 5744 5743 5742 5742 5742 5741 5740 5738 5737 5735 5732 5727
5647 5652 5656 5654 5670 5668 5674 5684 5687 5686 5697 5700 5708 5697 5713 5709 5707 5714 5720 5725 5723 5719 5719 5719 5721 5724 5727 5728 5730 5731 5732 5733 5732 5732 5732 5732 5732 5731 5729 5727 5726 5724 5720 5715
5636 5624 5634 5641 5646 5651 5664 5673 5671 5677 5683 5684 5691 5688 5707 5696 5697 5703 5708 5713 5714 5712 5711 5710 5711 5713 5715 5718 5720 5721 5721 5721 5721 5722 5722 5722 5721 5720 5719 5717 5715 5712 5707 5700
5610 5606 5612 5621 5641 5658 5644 5655 5658 5659 5662 5677 5675 5679 5687 5684 5686 5691 5697 5700 5701 5702 5702 5702 5702 5703 5705 5707 5708 5709 5709 5711 5711 5711 5711 5710 5710 5709 5708 5706 5702 5698 5693 5686
5589 5587 5601 5613 5633 5627 5629 5634 5640 5641 5651 5651 5666 5670 5678 5676 5672 5677 5680 5683 5688 5690 5690 5691 5692 5692 5693 5695 5697 5698 5700 5701 5701 5700 5700 5700 5699 5697 5696 5694 5690 5684 5679 5674
5576 5574 5589 5596 5610 5609 5614 5619 5624 5632 5640 5639 5650 5649 5661 5660 5659 5664 5668 5671 5675 5676 5677 5677 5679 5681 5685 5686 5687 5688 5689 5690 5689 5689 5689 5688 5687 5686 5684 5680 5675 5670 5665 5660
5564 5567 5571 5578 5594 5592 5587 5608 5614 5618 5624 5632 5631 5642 5647 5650 5649 5651 5656 5658 5660 5662 5664 5665 5668 5670 5672 5674 5675 5676 5677 5677 5678 5678 5677 5677 5676 5674 5670 5666 5662 5656 5651 5645
5552 5557 5561 5569 5573 5562 5591 5594 5604 5606 5611 5616 5621 5626 5629 5634 5637 5639 5641 5643 5646 5649 5653 5656 5658 5659 5660 5660 5662 5664 5665 5665 5666 5666 5665 5664 5662 5659 5655 5652 5647 5641 5636 5630
5540 5546 5549 5551 5554 5565 5568 5585 5594 5595 5601 5605 5609 5613 5612 5617 5619 5621 5624 5629 5635 5638 5639 5642 5643 5644 5646 5649 5651 5653 5653 5654 5654 5654 5653 5651 5648 5644 5642 5637 5632 5627 5621 5615
5521 5529 5536 5541 5542 5545 5571 5575 5581 5583 5583 5594 5596 5599 5604 5607 5603 5612 5616 5616 5619 5624 5627 5629 5631 5634 5636 5637 5640 5641 5641 5642 5641 5641 5639 5636 5633 5631 5627 5622 5617 5612 5607 5601
5509 5512 5518 5526 5531 5541 5546 5560 5560 5569 5586 5581 5583 5585 5589 5592 5597 5603 5600 5605 5608 5612 5616 5619 5621 5622 5623 5625 5626 5627 5628 5629 5628 5627 5625 5622 5620 5616 5612 5608 5603 5598 5592 5585
5497 5501 5506 5515 5523 5522 5537 5542 5551 5562 5563 5563 5569 5573 5577 5580 5585 5590 5592 5595 5598 5601 5604 5606 5607 5609 5612 5614 5616 5616 5616 5616 5615 5613 5611 5608 5605 5601 5596 5593 5589 5584 5577 5571
5482 5489 5498 5502 5515 5514 5523 5531 5541 5544 5546 5552 5557 5560 5565 5569 5574 5579 5581 5584 5587 5590 5593 5595 5597 5598 5599 5602 5603 5602 5603 5602 5600 5598 5596 5593 5589 5586 5583 5579 5573 5568 5562 5557
5476 5480 5485 5493 5504 5507 5512 5520 5527 5532 5536 5541 5545 5549 5553 5557 5561 5565 5570 5572 5575 5578 5580 5583 5584 5586 5587 5589 5588 5588 5587 5586 5584 5583 5580 5577 5574 5572 5568 5564 5559 5554 5548 5543
5464 5469 5476 5482 5490 5497 5503 5512 5515 5520 5525 5530 5535 5539 5543 5546 5550 5553 5556 5560 5563 5565 5568 5569 5571 5572 5573 5573 5574 5574 5573 5572 5571 5569 5567 5564 5561 5558 5554 5549 5544 5539 5534 5529
5452 5462 5467 5475 5487 5486 5491 5499 5503 5510 5513 5518 5523 5528 5532 5536 5538 5542 5545 5547 5548 5550 5553 5554 5556 5558 5559 5559 5559 5559 5559 5558 5557 5554 5552 5549 5545 5542 5538 5534 5529 5525 5519 5514